Date String (YYYY-MM-DD hh:mm:ss) UTC,Instrument flags,absolute air pressure of the measurement (hPa),sample flow rate (lpm),inlet stack bypass flow (lpm),air temperature of the measurement (°C),ambient temperature measured by the external sensor (°C),aerosol sample conditioner tube jacket temperature (°C),OPC LED temperature (°C),internal box temperature (°C),relative humidity of the measurement (%),span deviation,mass concentration of particles derived from Lorenz-Mie calculation of OPC scattering (μg/m³),mass concentration of particles derived from Lorenz-Mie calculation of OPC scattering (μg/m³),mass concentration of particles derived from Lorenz-Mie calculation of OPC scattering (μg/m³)
DateTimeUTC,F1_M11,P_M11,Q1_M11,Q2_M11,T1_M11,T2_M11,T3_M11,T4_M11,T5_M11,U1_M11,ZSPAN_M11,X0_M11,X2_M11,X1_M11
2023-07-31 21:00:00,SystemResetWarning,0835.3,5.01,000.00,031.9,025.4,000.0,039.0,031.1,31.9,0000.0,0015.61,0008.11,0006.53
2023-07-31 21:01:00,SystemResetWarning,0835.0,5.01,000.00,031.8,025.5,000.0,039.1,031.0,32.3,0000.0,0015.71,0008.14,0006.51
2023-07-31 21:02:00,SystemResetWarning,0834.7,4.99,000.00,031.6,025.9,000.0,039.1,031.0,32.5,0000.0,0016.31,0008.15,0006.49
2023-07-31 21:03:00,SystemResetWarning,0834.8,5.00,000.00,031.5,026.4,000.0,039.2,031.1,32.6,0000.0,0016.19,0008.18,0006.48
2023-07-31 21:04:00,SystemResetWarning,0834.7,5.01,000.00,031.5,026.8,000.0,039.2,031.2,32.3,0000.0,0016.36,0008.18,0006.49
2023-07-31 21:05:00,SystemResetWarning,0834.7,5.00,000.00,031.5,027.2,000.0,039.3,031.3,32.5,0000.0,0016.72,0008.18,0006.52
2023-07-31 21:06:00,SystemResetWarning,0834.7,4.99,000.00,031.5,027.0,000.0,039.2,031.3,32.6,0000.0,0016.94,0008.23,0006.52
2023-07-31 21:07:00,SystemResetWarning,0834.9,5.00,000.00,031.4,025.9,000.0,039.1,031.1,32.6,0000.0,0016.70,0008.31,0006.54
2023-07-31 21:08:00,SystemResetWarning,0835.1,5.01,000.00,031.4,025.3,000.0,039.0,031.0,33.0,0000.0,0016.73,0008.22,0006.54
2023-07-31 21:09:00,SystemResetWarning,0835.2,5.01,000.00,031.2,025.4,000.0,039.0,030.8,33.6,0000.0,0017.51,0008.20,0006.55
2023-07-31 21:10:00,SystemResetWarning,0835.0,4.99,000.00,031.1,025.8,000.0,039.0,030.8,33.7,0000.0,0017.40,0008.20,0006.54
2023-07-31 21:11:00,SystemResetWarning,0835.1,5.00,000.00,031.0,026.3,000.0,039.0,030.9,33.4,0000.0,0018.15,0008.20,0006.55
2023-07-31 21:12:00,SystemResetWarning,0835.1,4.99,000.00,031.0,026.7,000.0,039.0,031.0,33.3,0000.0,0017.93,0008.13,0006.55
2023-07-31 21:13:00,SystemResetWarning,0835.1,5.00,000.00,030.9,027.1,000.0,039.0,031.1,33.6,0000.0,0017.47,0008.15,0006.56
2023-07-31 21:14:00,SystemResetWarning,0835.1,5.00,000.00,030.9,027.4,000.0,039.0,031.2,33.8,0000.0,0016.91,0008.12,0006.57
2023-07-31 21:15:00,SystemResetWarning,0834.8,4.98,000.00,030.9,026.6,000.0,038.9,031.2,33.7,0000.0,0016.80,0008.12,0006.56
2023-07-31 21:16:00,SystemResetWarning,0834.6,5.00,000.00,030.8,025.4,000.0,038.7,030.9,34.2,0000.0,0016.65,0008.05,0006.55
2023-07-31 21:17:00,SystemResetWarning,0834.8,5.01,000.00,030.8,025.3,000.0,038.7,030.8,34.0,0000.0,0016.49,0008.03,0006.54
2023-07-31 21:18:00,SystemResetWarning,0835.1,5.01,000.00,030.6,025.6,000.0,038.7,030.6,34.7,0000.0,0016.25,0007.94,0006.53
2023-07-31 21:19:00,SystemResetWarning,0835.1,5.00,000.00,030.5,026.0,000.0,038.7,030.7,34.6,0000.0,0015.99,0007.94,0006.52
2023-07-31 21:20:00,SystemResetWarning,0835.1,5.00,000.00,030.5,026.5,000.0,038.7,030.9,34.4,0000.0,0015.43,0007.91,0006.51
2023-07-31 21:21:00,SystemResetWarning,0834.9,5.00,000.00,030.4,026.9,000.0,038.7,031.0,34.4,0000.0,0015.39,0007.93,0006.51
2023-07-31 21:22:00,SystemResetWarning,0835.0,5.00,000.00,030.4,027.3,000.0,038.7,031.1,34.4,0000.0,0014.76,0007.93,0006.51
2023-07-31 21:23:00,SystemResetWarning,0834.9,4.99,000.00,030.5,027.1,000.0,038.6,031.1,34.7,0000.0,0014.68,0007.93,0006.50
2023-07-31 21:24:00,SystemResetWarning,0834.6,4.98,000.00,030.4,025.9,000.0,038.5,030.9,34.4,0000.0,0014.65,0007.90,0006.48
2023-07-31 21:25:00,SystemResetWarning,0834.5,5.01,000.00,030.3,025.3,000.0,038.3,030.8,34.5,0000.0,0015.13,0007.88,0006.47
2023-07-31 21:26:00,SystemResetWarning,0834.5,5.01,000.00,030.2,025.4,000.0,038.3,030.6,34.7,0000.0,0015.08,0007.82,0006.46
2023-07-31 21:27:00,SystemResetWarning,0834.5,4.99,000.00,030.1,025.7,000.0,038.3,030.6,35.3,0000.0,0014.64,0007.81,0006.47
2023-07-31 21:28:00,SystemResetWarning,0834.5,5.02,000.00,030.3,026.2,000.0,038.4,030.8,35.1,0000.0,0014.89,0007.87,0006.47
2023-07-31 21:29:00,SystemResetWarning,0834.6,5.00,000.00,030.5,026.6,000.0,038.4,031.0,34.3,0000.0,0015.73,0007.97,0006.48
2023-07-31 21:30:00,SystemResetWarning,0834.5,5.00,000.00,030.7,027.1,000.0,038.4,031.2,34.4,0000.0,0016.30,0008.00,0006.48
2023-07-31 21:31:00,SystemResetWarning,0834.5,4.99,000.00,030.9,027.4,000.0,038.4,031.3,34.8,0000.0,0016.20,0007.99,0006.47
2023-07-31 21:32:00,SystemResetWarning,0834.5,5.01,000.00,031.0,027.3,000.0,038.4,031.3,34.4,0000.0,0016.30,0007.99,0006.48
2023-07-31 21:33:00,SystemResetWarning,0834.5,4.98,000.00,031.1,026.0,000.0,038.4,031.1,34.4,0000.0,0016.87,0007.97,0006.47
2023-07-31 21:34:00,SystemResetWarning,0834.5,5.01,000.00,031.1,025.3,000.0,038.3,030.9,34.6,0000.0,0018.22,0008.00,0006.49
2023-07-31 21:35:00,SystemResetWarning,0834.5,5.01,000.00,031.0,025.3,000.0,038.4,030.7,34.6,0000.0,0018.33,0007.99,0006.48
2023-07-31 21:36:00,SystemResetWarning,0834.4,4.99,000.00,030.9,025.7,000.0,038.5,030.7,35.5,0000.0,0018.03,0007.98,0006.50
2023-07-31 21:37:00,SystemResetWarning,0834.4,5.03,000.00,031.1,026.2,000.0,038.6,030.9,35.3,0000.0,0018.12,0008.03,0006.50
2023-07-31 21:38:00,SystemResetWarning,0834.5,4.97,000.00,031.3,026.6,000.0,038.6,031.2,34.5,0000.0,0018.61,0008.05,0006.50
2023-07-31 21:39:00,SystemResetWarning,0834.6,5.01,000.00,031.5,027.0,000.0,038.7,031.3,34.0,0000.0,0018.88,0007.99,0006.51
2023-07-31 21:40:00,SystemResetWarning,0834.5,5.01,000.00,031.6,027.4,000.0,038.8,031.4,34.2,0000.0,0018.43,0007.95,0006.52
2023-07-31 21:41:00,SystemResetWarning,0834.4,4.98,000.00,031.7,026.7,000.0,038.8,031.3,33.4,0000.0,0017.70,0007.94,0006.52
2023-07-31 21:42:00,SystemResetWarning,0834.4,5.01,000.00,031.7,025.5,000.0,038.7,031.1,33.1,0000.0,0017.68,0007.99,0006.53
2023-07-31 21:43:00,SystemResetWarning,0834.3,5.01,000.00,031.6,025.3,000.0,038.7,031.0,33.6,0000.0,0017.32,0008.00,0006.52
2023-07-31 21:44:00,SystemResetWarning,0834.3,5.01,000.00,031.5,025.5,000.0,038.8,030.8,33.6,0000.0,0017.57,0008.04,0006.53
2023-07-31 21:45:00,SystemResetWarning,0834.3,5.00,000.00,031.4,025.9,000.0,038.9,030.9,34.2,0000.0,0016.41,0008.02,0006.52
2023-07-31 21:46:00,SystemResetWarning,0834.3,5.00,000.00,031.4,026.4,000.0,039.0,031.0,34.2,0000.0,0015.75,0008.00,0006.51
2023-07-31 21:47:00,SystemResetWarning,0834.3,5.00,000.00,031.3,026.9,000.0,039.0,031.1,34.2,0000.0,0015.62,0007.98,0006.50
2023-07-31 21:48:00,SystemResetWarning,0834.3,5.00,000.00,031.3,027.2,000.0,039.0,031.2,34.1,0000.0,0016.31,0007.94,0006.48
2023-07-31 21:49:00,SystemResetWarning,0834.3,4.97,000.00,031.3,027.3,000.0,039.0,031.3,34.8,0000.0,0016.69,0007.87,0006.44
2023-07-31 21:50:00,SystemResetWarning,0834.2,5.02,000.00,031.4,026.1,000.0,038.9,031.2,33.7,0000.0,0016.61,0007.86,0006.40
2023-07-31 21:51:00,SystemResetWarning,0834.3,5.00,000.00,031.3,025.2,000.0,038.8,031.0,34.1,0000.0,0016.68,0007.81,0006.37
2023-07-31 21:52:00,SystemResetWarning,0834.3,5.01,000.00,031.2,025.3,000.0,038.8,030.9,34.0,0000.0,0017.08,0007.80,0006.35
2023-07-31 21:53:00,SystemResetWarning,0834.3,4.98,000.00,031.1,025.7,000.0,038.9,030.8,34.9,0000.0,0017.50,0007.79,0006.32
2023-07-31 21:54:00,SystemResetWarning,0834.2,5.02,000.00,031.1,026.1,000.0,038.9,031.0,34.8,0000.0,0017.89,0007.80,0006.31
2023-07-31 21:55:00,SystemResetWarning,0834.2,4.97,000.00,031.2,026.6,000.0,038.9,031.1,34.2,0000.0,0017.90,0007.75,0006.30
2023-07-31 21:56:00,SystemResetWarning,0834.2,5.01,000.00,031.3,027.0,000.0,038.9,031.2,34.6,0000.0,0017.19,0007.74,0006.28
2023-07-31 21:57:00,SystemResetWarning,0834.4,5.02,000.00,031.4,027.4,000.0,039.0,031.3,34.8,0000.0,0017.47,0007.76,0006.27
2023-07-31 21:58:00,SystemResetWarning,0834.2,4.97,000.00,031.5,027.4,000.0,039.0,031.4,33.9,0000.0,0017.57,0007.71,0006.24
2023-07-31 21:59:00,SystemResetWarning,0834.2,5.01,000.00,031.5,026.2,000.0,038.9,031.2,33.1,0000.0,0017.16,0007.73,0006.22
